K1VL Weather Reports


Display with metric or nautical units.
time (UTC)temp
F
wind
direction
speed
MPH
gust
MPH
rain 1hr
in
rain 24hr
in
rain mn
in
humidity
%
barometer
mb
20260902052515 59 113 2.0 9.0 0.00 0.27 0.00 95 1021.2
20260902052016 59 90 2.0 6.0 0.00 0.27 0.00 96 1021.1
20260902051516 59 135 2.0 5.0 0.00 0.27 0.00 97 1021.0
20260902051016 59 90 2.0 7.0 0.00 0.27 0.00 97 1020.9
20260902050516 59 90 2.0 6.0 0.00 0.27 0.00 97 1020.9
20260902050016 59 113 2.0 5.0 0.00 0.27 0.00 97 1020.9
20260902045516 59 68 2.0 6.0 0.00 0.27 0.00 97 1020.9
20260902045016 59 113 2.0 4.0 0.00 0.27 0.00 97 1020.8
20260902044516 59 68 3.0 9.0 0.00 0.27 0.00 97 1020.9
20260902044016 59 90 3.0 7.0 0.00 0.27 0.00 97 1020.9
20260902043516 59 113 4.0 7.0 0.00 0.27 0.00 98 1020.7
20260902043016 59 135 2.0 7.0 0.01 0.27 0.00 98 1020.9
20260902042516 59 90 4.0 7.0 0.01 0.27 0.00 98 1020.9
20260902042016 59 90 3.0 6.0 0.01 0.27 0.00 99 1020.7
20260902041516 59 113 2.0 7.0 0.01 0.27 0.00 99 1020.8
20260902041016 60 113 2.0 7.0 0.01 0.27 0.00 99 1020.6
20260902040516 60 68 2.0 5.0 0.01 0.27 0.00 99 1020.5
20260902040036 60 90 3.0 5.0 0.01 0.27 0.00 99 1020.4
20260902035516 60 113 3.0 9.0 0.01 0.27 0.27 99 1020.2
20260902035016 60 90 1.0 6.0 0.01 0.27 0.27 99 1020.2
20260902034516 60 113 2.0 6.0 0.01 0.27 0.27 99 1020.2
20260902034015 60 113 3.0 8.0 0.01 0.27 0.27 99 1020.2
20260902033516 60 68 4.0 8.0 0.01 0.27 0.27 99 1020.2
20260902033036 60 113 4.0 8.0 0.01 0.26 0.26 99 1020.2
20260902032516 60 90 2.0 6.0 0.01 0.26 0.26 99 1020.2
20260902032016 60 90 3.0 7.0 0.01 0.26 0.26 99 1020.2
20260902031516 60 113 3.0 7.0 0.01 0.26 0.26 99 1020.2
20260902031016 60 113 3.0 8.0 0.01 0.26 0.26 99 1020.2
20260902030516 60 113 3.0 7.0 0.01 0.26 0.26 99 1020.2
20260902030016 60 90 3.0 6.0 0.01 0.26 0.26 99 1020.3
20260902025516 60 135 2.0 5.0 0.01 0.26 0.26 99 1020.3
20260902025016 60 135 2.0 6.0 0.01 0.26 0.26 99 1020.3
20260902024536 60 135 2.0 6.0 0.01 0.26 0.26 99 1020.3
20260902024016 60 113 3.0 5.0 0.01 0.26 0.26 99 1020.3
20260902023516 60 135 3.0 5.0 0.01 0.26 0.26 99 1020.4
20260902023036 60 90 3.0 7.0 0.00 0.25 0.25 99 1020.4
20260902022516 60 113 2.0 6.0 0.00 0.25 0.25 99 1020.4
20260902022016 60 113 4.0 7.0 0.00 0.25 0.25 99 1020.3
20260902021516 60 90 4.0 7.0 0.00 0.25 0.25 99 1020.3
20260902021016 60 90 2.0 6.0 0.00 0.25 0.25 99 1020.3
20260902020516 60 135 2.0 5.0 0.00 0.25 0.25 99 1020.2
20260902020016 60 135 2.0 6.0 0.00 0.25 0.25 99 1020.2
20260902015516 60 68 1.0 5.0 0.00 0.25 0.25 99 1020.2
20260902015016 60 113 2.0 7.0 0.00 0.25 0.25 99 1020.0
20260902014536 60 113 3.0 7.0 0.00 0.25 0.25 99 1019.9
20260902014016 60 135 3.0 8.0 0.00 0.25 0.25 99 1019.9
20260902013516 60 113 5.0 10.0 0.00 0.25 0.25 99 1019.8
20260902013016 60 135 4.0 9.0 0.00 0.25 0.25 99 1019.7
20260902012516 60 113 5.0 11.0 0.00 0.25 0.25 99 1019.9
20260902012016 60 90 4.0 9.0 0.00 0.25 0.25 99 1020.0
20260902011516 60 135 3.0 5.0 0.00 0.25 0.25 99 1020.0
20260902011016 60 135 3.0 8.0 0.00 0.25 0.25 99 1020.0
20260902010516 60 135 4.0 8.0 0.00 0.25 0.25 99 1020.0
20260902010036 60 90 3.0 8.0 0.00 0.25 0.25 99 1019.9
20260902005516 61 113 3.0 7.0 0.00 0.25 0.25 99 1019.9
20260902005016 61 68 2.0 6.0 0.00 0.25 0.25 99 1020.0
20260902004516 61 113 1.0 3.0 0.00 0.25 0.25 99 1020.0
20260902004016 60 90 1.0 3.0 0.00 0.25 0.25 99 1020.0
20260902003516 60 135 1.0 2.0 0.00 0.25 0.25 99 1020.0
20260902003016 60 0.0 0.0 0.00 0.25 0.25 99 1019.9
20260902002516 60 0.0 0.0 0.00 0.25 0.25 99 1019.9
20260902002016 60 0.0 2.0 0.00 0.25 0.25 99 1020.0
20260902001516 60 0.0 3.0 0.00 0.25 0.25 99 1019.9
20260902001016 60 0.0 1.0 0.00 0.25 0.25 99 1019.9
20260902000516 60 90 1.0 3.0 0.00 0.25 0.25 99 1019.8
20260902000016 60 90 1.0 3.0 0.00 0.25 0.25 99 1019.7
20260901235516 60 135 2.0 5.0 0.00 0.25 0.25 99 1019.6
20260901235056 61 68 1.0 5.0 0.00 0.25 0.25 99 1019.5
20260901234536 61 135 2.0 7.0 0.00 0.25 0.25 99 1019.5
20260901234016 61 90 5.0 9.0 0.00 0.25 0.25 99 1019.5
20260901233556 61 135 2.0 10.0 0.00 0.25 0.25 99 1019.4
20260901233036 61 113 2.0 4.0 0.00 0.25 0.25 99 1019.5
20260901232516 61 90 2.0 5.0 0.00 0.25 0.25 99 1019.5
20260901232016 61 113 1.0 5.0 0.00 0.25 0.25 99 1019.4
20260901231516 61 90 2.0 8.0 0.00 0.25 0.25 98 1019.5
20260901231016 61 113 2.0 5.0 0.00 0.25 0.25 98 1019.3
20260901230616 61 113 2.0 8.0 0.00 0.25 0.25 98 1019.3
20260901230036 61 68 3.0 6.0 0.00 0.25 0.25 98 1019.3
20260901225516 61 113 3.0 8.0 0.00 0.25 0.25 98 1019.3
20260901225016 61 135 2.0 5.0 0.00 0.25 0.25 98 1019.3
20260901224516 61 113 3.0 6.0 0.00 0.25 0.25 98 1019.4
20260901224016 61 113 3.0 10.0 0.00 0.25 0.25 98 1019.4
20260901223516 61 68 1.0 6.0 0.00 0.25 0.25 97 1019.3
20260901223036 61 90 4.0 9.0 0.00 0.25 0.25 97 1019.3
20260901222517 61 113 4.0 8.0 0.00 0.25 0.25 97 1019.3
20260901222016 61 113 3.0 7.0 0.00 0.25 0.25 97 1019.3
20260901221516 61 113 4.0 7.0 0.00 0.25 0.25 97 1019.4
20260901221016 61 135 2.0 6.0 0.00 0.25 0.25 97 1019.5
20260901220516 61 135 1.0 4.0 0.00 0.25 0.25 97 1019.5
20260901220016 61 0.0 4.0 0.00 0.25 0.25 97 1019.5
20260901215516 61 135 1.0 7.0 0.00 0.25 0.25 97 1019.5
20260901215016 62 135 3.0 10.0 0.00 0.25 0.25 97 1019.5
20260901214536 62 135 3.0 9.0 0.00 0.25 0.25 97 1019.4
20260901214016 62 113 3.0 7.0 0.00 0.25 0.25 97 1019.3
20260901213516 62 90 3.0 6.0 0.00 0.25 0.25 96 1019.2
20260901213016 62 90 3.0 7.0 0.00 0.25 0.25 97 1019.2
20260901212516 62 113 4.0 8.0 0.00 0.25 0.25 96 1019.1
20260901212016 62 90 4.0 9.0 0.00 0.25 0.25 96 1019.1
20260901211536 62 135 5.0 10.0 0.00 0.25 0.25 96 1019.0
20260901211016 62 90 6.0 13.0 0.00 0.25 0.25 96 1019.0
20260901210516 62 90 6.0 11.0 0.00 0.25 0.25 95 1019.0
20260901210016 62 135 3.0 9.0 0.00 0.25 0.25 95 1018.9
20260901205516 62 68 4.0 8.0 0.00 0.25 0.25 96 1018.9
20260901205016 62 113 5.0 9.0 0.00 0.25 0.25 96 1018.9
20260901204516 62 90 6.0 11.0 0.00 0.25 0.25 96 1018.9
20260901204016 62 113 4.0 10.0 0.00 0.25 0.25 95 1019.0
20260901203536 62 135 2.0 7.0 0.00 0.25 0.25 96 1019.0
20260901203016 62 135 3.0 7.0 0.00 0.25 0.25 96 1018.9
20260901202516 62 113 3.0 7.0 0.00 0.25 0.25 96 1018.9
20260901202016 62 135 3.0 6.0 0.00 0.25 0.25 95 1019.0
20260901201516 62 135 3.0 8.0 0.00 0.25 0.25 95 1019.0
20260901201036 62 158 3.0 7.0 0.00 0.25 0.25 95 1019.0
20260901200516 63 135 2.0 4.0 0.00 0.25 0.25 95 1018.8
20260901200056 62 135 2.0 5.0 0.00 0.25 0.25 95 1018.9
20260901195536 62 135 1.0 6.0 0.00 0.25 0.25 95 1018.8
20260901195056 62 135 2.0 8.0 0.00 0.25 0.25 95 1018.8
20260901194516 62 68 3.0 7.0 0.00 0.25 0.25 95 1018.7
20260901194016 62 135 3.0 9.0 0.00 0.25 0.25 95 1018.8
20260901193516 62 68 2.0 7.0 0.00 0.25 0.25 95 1018.8
20260901193036 62 135 4.0 12.0 0.00 0.25 0.25 94 1018.8
20260901192556 62 90 3.0 10.0 0.00 0.25 0.25 95 1018.7
20260901192016 62 113 4.0 8.0 0.00 0.25 0.25 94 1018.9
20260901191556 62 90 3.0 8.0 0.00 0.25 0.25 94 1018.8
20260901191016 63 68 3.0 6.0 0.00 0.25 0.25 94 1018.8
20260901190516 63 90 2.0 8.0 0.00 0.25 0.25 94 1018.9
20260901190016 63 113 2.0 5.0 0.00 0.25 0.25 94 1018.9
20260901185516 63 135 2.0 7.0 0.00 0.25 0.25 93 1018.9
20260901185016 63 90 2.0 11.0 0.00 0.25 0.25 94 1018.8
20260901184516 63 90 4.0 9.0 0.00 0.25 0.25 93 1018.8
20260901184016 63 113 4.0 10.0 0.00 0.25 0.25 93 1018.9
20260901183536 63 113 3.0 12.0 0.00 0.25 0.25 93 1018.8
20260901183016 63 135 2.0 7.0 0.00 0.25 0.25 93 1018.8
20260901182536 63 90 1.0 5.0 0.00 0.25 0.25 94 1018.8
20260901182016 64 90 4.0 10.0 0.00 0.25 0.25 92 1018.9
20260901181516 64 135 2.0 7.0 0.00 0.25 0.25 93 1018.9
20260901181016 64 113 1.0 6.0 0.00 0.25 0.25 92 1018.9
20260901180516 64 113 2.0 5.0 0.00 0.25 0.25 93 1018.8
20260901180016 64 135 4.0 9.0 0.00 0.25 0.25 92 1018.7
20260901175536 64 135 2.0 7.0 0.00 0.25 0.25 93 1018.6
20260901175016 63 135 3.0 8.0 0.00 0.25 0.25 93 1018.7
20260901174516 63 180 1.0 5.0 0.00 0.25 0.25 93 1018.7
20260901174018 63 135 2.0 6.0 0.00 0.25 0.25 93 1018.7
20260901173516 63 113 2.0 8.0 0.00 0.25 0.25 94 1018.6
20260901173016 63 135 2.0 6.0 0.00 0.25 0.25 94 1018.6
20260901172516 63 135 2.0 6.0 0.00 0.25 0.25 95 1018.6
20260901172016 63 68 3.0 7.0 0.00 0.25 0.25 96 1018.5
20260901171516 62 270 1.0 4.0 0.00 0.25 0.25 96 1018.5
20260901171036 62 0.0 1.0 0.00 0.25 0.25 96 1018.6
20260901170516 61 248 1.0 4.0 0.00 0.25 0.25 95 1018.7
20260901170016 61 225 1.0 3.0 0.00 0.25 0.25 96 1018.7
20260901165516 61 338 1.0 3.0 0.00 0.25 0.25 95 1018.7
20260901165016 61 293 1.0 3.0 0.00 0.25 0.25 96 1018.7
20260901164516 61 315 1.0 3.0 0.00 0.25 0.25 96 1018.7
20260901164016 60 68 2.0 6.0 0.00 0.25 0.25 96 1018.7
20260901163516 60 90 2.0 5.0 0.00 0.25 0.25 96 1018.5
20260901163016 59 113 3.0 6.0 0.01 0.25 0.25 96 1018.7
20260901162516 59 113 2.0 6.0 0.01 0.25 0.25 95 1018.8
20260901162036 60 68 2.0 8.0 0.01 0.25 0.25 95 1018.9
20260901161516 60 135 2.0 8.0 0.01 0.25 0.25 95 1018.8
20260901161036 60 68 4.0 9.0 0.01 0.25 0.25 95 1018.6
20260901160516 60 90 2.0 6.0 0.01 0.25 0.25 96 1018.4
20260901160016 59 68 2.0 6.0 0.01 0.25 0.25 97 1018.3
20260901155516 59 113 4.0 11.0 0.01 0.25 0.25 97 1018.3
20260901155016 59 68 4.0 10.0 0.01 0.25 0.25 97 1018.4
20260901154536 59 135 2.0 6.0 0.01 0.25 0.25 97 1018.6
20260901154016 59 68 3.0 8.0 0.01 0.25 0.25 97 1018.6
20260901153536 59 68 3.0 11.0 0.01 0.25 0.25 97 1018.8
20260901153016 59 68 3.0 9.0 0.01 0.24 0.24 97 1018.7
20260901152516 59 68 3.0 10.0 0.01 0.24 0.24 97 1018.7
20260901152057 59 90 2.0 10.0 0.01 0.24 0.24 97 1018.8
20260901151516 59 45 2.0 8.0 0.01 0.24 0.24 97 1018.8
20260901151016 59 68 2.0 6.0 0.01 0.24 0.24 97 1018.9
20260901150516 59 68 2.0 5.0 0.01 0.24 0.24 96 1018.7
20260901150016 60 68 2.0 6.0 0.01 0.24 0.24 96 1018.8
20260901145516 61 68 1.0 4.0 0.01 0.24 0.24 95 1018.9
20260901145016 61 0.0 2.0 0.01 0.24 0.24 96 1018.8
20260901144516 61 113 2.0 5.0 0.01 0.24 0.24 95 1018.6
20260901144016 60 135 1.0 4.0 0.01 0.24 0.24 96 1018.6
20260901143516 60 90 3.0 9.0 0.01 0.24 0.24 95 1018.5
20260901143016 60 90 3.0 7.0 0.00 0.23 0.23 96 1018.4
20260901142516 60 90 4.0 10.0 0.00 0.23 0.23 96 1018.3
20260901142016 61 135 5.0 8.0 0.00 0.23 0.23 96 1018.3
20260901141516 61 135 4.0 10.0 0.00 0.23 0.23 95 1018.2
20260901141033 61 135 1.0 4.0 0.00 0.23 0.23 96 1018.2
20260901140516 61 135 1.0 3.0 0.00 0.23 0.23 96 1018.2
20260901140016 61 68 1.0 5.0 0.00 0.23 0.23 96 1018.3
20260901135516 61 68 1.0 4.0 0.00 0.23 0.23 95 1018.4
20260901135016 61 113 2.0 8.0 0.00 0.23 0.23 95 1018.4
20260901134516 61 135 1.0 3.0 0.00 0.23 0.23 97 1018.3
20260901134016 61 135 1.0 4.0 0.00 0.23 0.23 97 1018.3
20260901133516 60 0.0 2.0 0.00 0.23 0.23 97 1018.4
20260901133016 60 0.0 2.0 0.00 0.23 0.23 98 1018.5
20260901132516 60 0.0 2.0 0.01 0.23 0.23 97 1018.5
20260901132016 59 0.0 2.0 0.01 0.23 0.23 97 1018.6
20260901131516 59 113 1.0 2.0 0.01 0.23 0.23 97 1018.6
20260901131016 59 90 1.0 3.0 0.02 0.23 0.23 97 1018.8
20260901130516 60 0.0 1.0 0.02 0.23 0.23 97 1018.9
20260901130016 60 0.0 0.0 0.03 0.23 0.23 98 1018.9
20260901125516 59 0.0 0.0 0.04 0.23 0.23 98 1018.9
20260901125016 59 0.0 1.0 0.05 0.23 0.23 98 1018.7
20260901124516 59 0.0 1.0 0.05 0.23 0.23 98 1018.6
20260901124016 59 0.0 0.0 0.06 0.23 0.23 98 1018.7
20260901123516 59 0.0 1.0 0.07 0.23 0.23 98 1018.6
20260901123016 59 0.0 1.0 0.08 0.23 0.23 98 1018.8
20260901122516 59 0.0 2.0 0.08 0.22 0.22 98 1018.9
20260901122016 58 0.0 1.0 0.09 0.22 0.22 98 1018.8
20260901121516 58 0.0 1.0 0.10 0.22 0.22 98 1018.9
20260901121016 58 0.0 2.0 0.09 0.21 0.21 98 1018.9
20260901120536 58 0.0 2.0 0.10 0.21 0.21 99 1018.9
20260901120016 58 45 1.0 4.0 0.10 0.20 0.20 99 1019.0
20260901115516 58 0.0 2.0 0.10 0.19 0.19 99 1019.1
20260901115016 58 0.0 0.0 0.09 0.18 0.18 99 1019.2
20260901114516 58 0.0 0.0 0.09 0.18 0.18 99 1019.2
20260901114016 58 0.0 1.0 0.09 0.17 0.17 98 1019.1
20260901113516 58 0.0 0.0 0.09 0.16 0.16 98 1018.9
20260901113016 58 0.0 1.0 0.09 0.15 0.15 98 1018.9
20260901112516 58 0.0 1.0 0.09 0.14 0.14 98 1018.9
20260901112016 58 0.0 0.0 0.09 0.13 0.13 98 1018.8
20260901111516 58 0.0 0.0 0.10 0.12 0.12 98 1018.6
20260901111016 58 0.0 0.0 0.11 0.12 0.12 98 1018.7
20260901110516 58 0.0 0.0 0.11 0.11 0.11 98 1018.6
20260901110016 58 0.0 1.0 0.10 0.10 0.10 97 1018.7
20260901105536 58 0.0 0.0 0.09 0.09 0.09 97 1018.8
20260901105016 59 0.0 1.0 0.09 0.09 0.09 96 1018.9
20260901104556 59 0.0 0.0 0.09 0.09 0.09 96 1018.9
20260901104016 59 135 1.0 3.0 0.08 0.08 0.08 95 1018.8
20260901103516 60 90 2.0 7.0 0.07 0.07 0.07 93 1018.8
20260901103016 60 90 3.0 6.0 0.06 0.06 0.07 92 1018.9
20260901102516 60 90 2.0 7.0 0.05 0.05 0.05 93 1018.9
20260901102016 60 113 1.0 3.0 0.04 0.04 0.04 92 1018.9
20260901101516 61 90 1.0 6.0 0.02 0.02 0.02 91 1018.8
20260901101016 61 90 1.0 5.0 0.01 0.01 0.01 90 1018.9
20260901100516 61 90 1.0 6.0 0.00 0.00 0.00 90 1018.7
20260901100036 61 0.0 1.0 0.00 0.00 0.00 92 1018.8
20260901095516 61 0.0 0.0 0.00 0.00 0.00 92 1018.6
20260901095016 61 0.0 0.0 0.00 0.00 0.00 92 1018.5
20260901094516 61 0.0 0.0 0.00 0.00 0.00 91 1018.4
20260901094016 61 0.0 0.0 0.00 0.00 0.00 91 1018.4
20260901093516 61 0.0 0.0 0.00 0.00 0.00 90 1018.3
20260901093016 62 0.0 0.0 0.00 0.00 0.00 89 1018.3
20260901092516 62 0.0 0.0 0.00 0.00 0.00 88 1018.1
20260901092016 62 0.0 0.0 0.00 0.00 0.00 88 1018.1
20260901091516 62 270 1.0 2.0 0.00 0.00 0.00 87 1018.2
20260901091016 63 0.0 1.0 0.00 0.00 0.00 86 1018.2
20260901090516 63 45 1.0 4.0 0.00 0.00 0.00 85 1018.1
20260901090036 62 45 4.0 9.0 0.00 0.00 0.00 86 1018.3
20260901085516 62 90 1.0 7.0 0.00 0.00 0.00 88 1018.5
20260901085016 62 0.0 0.0 0.00 0.00 0.00 90 1018.6
20260901084516 63 0.0 0.0 0.00 0.00 0.00 88 1018.6
20260901084016 63 0.0 0.0 0.00 0.00 0.00 87 1018.5
20260901083516 63 0.0 0.0 0.00 0.00 0.00 86 1018.5
20260901083016 63 0.0 1.0 0.00 0.00 0.00 86 1018.6
20260901082516 63 90 1.0 3.0 0.00 0.00 0.00 85 1018.6
20260901082016 63 68 4.0 8.0 0.00 0.00 0.00 85 1018.8
20260901081516 63 68 3.0 6.0 0.00 0.00 0.00 85 1018.9
20260901081016 63 90 3.0 6.0 0.00 0.00 0.00 86 1018.7
20260901080516 63 113 3.0 6.0 0.00 0.00 0.00 87 1018.6
20260901080016 63 90 3.0 4.0 0.00 0.00 0.00 87 1018.6
20260901075516 63 90 2.0 5.0 0.00 0.00 0.00 87 1018.6
20260901075016 62 90 2.0 6.0 0.00 0.00 0.00 88 1018.6
20260901074516 62 113 1.0 5.0 0.00 0.00 0.00 89 1018.5
20260901074016 62 0.0 2.0 0.00 0.00 0.00 89 1018.6
20260901073516 61 113 1.0 4.0 0.00 0.00 0.00 90 1018.6
20260901073016 61 113 1.0 4.0 0.00 0.00 0.00 94 1018.7
20260901072516 60 0.0 2.0 0.00 0.00 0.00 97 1018.5
20260901072016 60 0.0 1.0 0.00 0.00 0.00 98 1018.7
20260901071516 60 0.0 0.0 0.00 0.00 0.00 98 1018.8
20260901071016 60 0.0 0.0 0.00 0.00 0.00 98 1018.8
20260901070542 60 0.0 0.0 0.00 0.00 0.00 98 1018.6
20260901070036 60 0.0 0.0 0.00 0.00 0.00 98 1018.8
20260901065536 60 0.0 0.0 0.00 0.00 0.00 98 1018.8
20260901065016 60 0.0 0.0 0.00 0.00 0.00 98 1018.8
20260901064516 60 0.0 0.0 0.00 0.00 0.00 98 1018.9
20260901064057 60 0.0 0.0 0.00 0.00 0.00 98 1019.0
20260901063516 60 0.0 0.0 0.00 0.00 0.00 98 1019.1
20260901063016 60 0.0 0.0 0.00 0.00 0.00 98 1019.1
20260901062516 60 0.0 0.0 0.00 0.00 0.00 98 1019.3
20260901062016 60 0.0 0.0 0.00 0.00 0.00 97 1019.3
20260901061516 60 0.0 0.0 0.00 0.00 0.00 97 1019.2
20260901061016 60 0.0 0.0 0.00 0.00 0.00 97 1019.2
20260901060516 60 0.0 0.0 0.00 0.00 0.00 97 1019.2
20260901060016 60 0.0 0.0 0.00 0.00 0.00 97 1019.3
20260901055516 60 0.0 0.0 0.00 0.00 0.00 97 1019.3
20260901055016 60 0.0 0.0 0.00 0.00 0.00 97 1019.2
20260901054516 60 0.0 0.0 0.00 0.00 0.00 97 1019.3
20260901054016 60 0.0 0.0 0.00 0.00 0.00 97 1019.5
20260901053536 60 0.0 0.0 0.00 0.00 0.00 97 1019.6